Simultaneous Nadir Overpasses (SNOs) Predictions

Prediction of SNOs between AQUA and NOAA-19 Satellite Orbit:

Table of predicted SNOs for the next 14.0 days since TLE Epoch: 8/3/2013
Index Date (AQUA) Time (AQUA) Lat,Lon (AQUA) SZA (AQUA ) Date (NOAA-19) Time (NOAA-19) Lat,Lon (NOAA-19) SZA (NOAA-19 ) Distance(km) Time Diff (sec)
1 08/04/2013 02:51:31 -54.83, -30.70 141.66 08/04/2013 02:51:33 -54.83, -30.70 141.66 0.24 2
2 08/06/2013 07:36:04 -55.70,-102.23 140.29 08/06/2013 07:36:05 -55.70,-102.24 140.29 0.96 1
3 08/08/2013 12:20:36 -56.52,-173.75 138.94 08/08/2013 12:20:36 -56.53,-173.78 138.93 1.99 0
4 08/10/2013 17:04:45 -56.01, 115.45 138.75 08/10/2013 17:04:43 -56.01, 115.47 138.75 1.46 2
5 08/12/2013 21:49:14 -56.69, 44.00 137.48 08/12/2013 21:49:11 -56.68, 44.02 137.48 0.88 3
6 08/15/201
